| time (UTC) | temp F | wind direction | speed MPH | gust MPH | rain 1hr in | rain 24hr in | rain mn in | humidity % | barometer mb |
| 20260505090037 | 53 | 206 | 1.0 | 2.0 | 0.00 | 0.00 | 0.00 | 61 | 1023.6 |
| 20260505085802 | 52 | 224 | 0.0 | 0.0 | 0.00 | 0.00 | 0.00 | 62 | 1023.6 |
| 20260505085038 | 52 | 217 | 0.0 | 0.0 | 0.00 | 0.00 | 0.00 | 62 | 1023.5 |
| 20260505084806 | 52 | 209 | 0.0 | 0.0 | 0.00 | 0.00 | 0.00 | 62 | 1023.6 |
| 20260505084043 | 53 | 233 | 0.0 | 0.0 | 0.00 | 0.00 | 0.00 | 61 | 1023.5 |
| 20260505083538 | 53 | 227 | 0.0 | 2.0 | 0.00 | 0.00 | 0.00 | 60 | 1023.5 |
| 20260505083038 | 53 | 228 | 0.0 | 3.0 | 0.00 | 0.00 | 0.00 | 59 | 1023.5 |
| 20260505082536 | 53 | 271 | 1.0 | 3.0 | 0.00 | 0.00 | 0.00 | 60 | 1023.4 |
| 20260505082037 | 53 | 226 | 1.0 | 2.0 | 0.00 | 0.00 | 0.00 | 61 | 1023.4 |
| 20260505081536 | 53 | 261 | 0.0 | 2.0 | 0.00 | 0.00 | 0.00 | 60 | 1023.3 |
| 20260505081038 | 54 | 199 | 1.0 | 3.0 | 0.00 | 0.00 | 0.00 | 59 | 1023.4 |
| 20260505080759 | 54 | 221 | 1.0 | 3.0 | 0.00 | 0.00 | 0.00 | 59 | 1023.4 |
| 20260505080305 | 54 | 203 | 0.0 | 2.0 | 0.00 | 0.00 | 0.00 | 59 | 1023.3 |
| 20260505075536 | 54 | 212 | 2.0 | 2.0 | 0.00 | 0.00 | 0.00 | 58 | 1023.3 |
| 20260505075257 | 54 | 207 | 1.0 | 2.0 | 0.00 | 0.00 | 0.00 | 58 | 1023.3 |
| 20260505074536 | 55 | 204 | 1.0 | 4.0 | 0.00 | 0.00 | 0.00 | 57 | 1023.3 |
| 20260505074035 | 55 | 190 | 3.0 | 4.0 | 0.00 | 0.00 | 0.00 | 57 | 1023.2 |
| 20260505073538 | 55 | 212 | 1.0 | 3.0 | 0.00 | 0.00 | 0.00 | 57 | 1023.2 |
| 20260505073529 | 55 | 202 | 1.0 | 2.0 | 0.00 | 0.00 | 0.00 | 57 | 1023.2 |
| 20260505072537 | 55 | 219 | 1.0 | 2.0 | 0.00 | 0.00 | 0.00 | 56 | 1023.2 |
| 20260505072520 | 56 | 207 | 2.0 | 3.0 | 0.00 | 0.00 | 0.00 | 55 | 1023.1 |
| 20260505071535 | 56 | 213 | 2.0 | 3.0 | 0.00 | 0.00 | 0.00 | 55 | 1023.0 |
| 20260505071036 | 56 | 165 | 2.0 | 3.0 | 0.00 | 0.00 | 0.00 | 54 | 1022.9 |
| 20260505070535 | 56 | 217 | 1.0 | 3.0 | 0.00 | 0.00 | 0.00 | 54 | 1022.9 |
| 20260505070036 | 57 | 221 | 1.0 | 3.0 | 0.00 | 0.00 | 0.00 | 54 | 1022.7 |
| 20260505065756 | 57 | 259 | 0.0 | 2.0 | 0.00 | 0.00 | 0.00 | 53 | 1022.7 |
| 20260505065036 | 57 | 251 | 1.0 | 2.0 | 0.00 | 0.00 | 0.00 | 54 | 1022.6 |
| 20260505064534 | 57 | 269 | 1.0 | 2.0 | 0.00 | 0.00 | 0.00 | 52 | 1022.6 |
| 20260505064034 | 58 | 190 | 1.0 | 3.0 | 0.00 | 0.00 | 0.00 | 52 | 1022.6 |
| 20260505063534 | 58 | 213 | 1.0 | 3.0 | 0.00 | 0.00 | 0.00 | 51 | 1022.4 |
| 20260505063034 | 58 | 235 | 0.0 | 2.0 | 0.00 | 0.00 | 0.00 | 51 | 1022.5 |
| 20260505062535 | 58 | 165 | 0.0 | 2.0 | 0.00 | 0.00 | 0.00 | 51 | 1022.5 |
| 20260505062034 | 58 | 219 | 1.0 | 2.0 | 0.00 | 0.00 | 0.00 | 52 | 1022.4 |
| 20260505061805 | 58 | 228 | 0.0 | 3.0 | 0.00 | 0.00 | 0.00 | 51 | 1022.3 |
| 20260505061033 | 59 | 207 | 0.0 | 3.0 | 0.00 | 0.00 | 0.00 | 50 | 1022.3 |
| 20260505060535 | 60 | 172 | 1.0 | 3.0 | 0.00 | 0.00 | 0.00 | 49 | 1022.2 |
| 20260505060300 | 60 | 190 | 1.0 | 3.0 | 0.00 | 0.00 | 0.00 | 47 | 1022.2 |
| 20260505055533 | 61 | 172 | 0.0 | 2.0 | 0.00 | 0.00 | 0.00 | 46 | 1022.1 |
| 20260505055034 | 61 | 161 | 0.0 | 3.0 | 0.00 | 0.00 | 0.00 | 45 | 1022.1 |
| 20260505054533 | 61 | 144 | 2.0 | 3.0 | 0.00 | 0.00 | 0.00 | 47 | 1022.1 |
| 20260505054033 | 61 | 141 | 0.0 | 3.0 | 0.00 | 0.00 | 0.00 | 47 | 1021.9 |
| 20260505053758 | 62 | 117 | 1.0 | 2.0 | 0.00 | 0.00 | 0.00 | 46 | 1021.9 |
| 20260505053033 | 62 | 168 | 0.0 | 2.0 | 0.00 | 0.00 | 0.00 | 46 | 1021.9 |
| 20260505052752 | 61 | 152 | 0.0 | 2.0 | 0.00 | 0.00 | 0.00 | 47 | 1021.8 |
| 20260505052034 | 61 | 157 | 1.0 | 1.0 | 0.00 | 0.00 | 0.00 | 46 | 1021.7 |
| 20260505051532 | 61 | 155 | 0.0 | 1.0 | 0.00 | 0.00 | 0.00 | 47 | 1021.7 |
| 20260505051033 | 61 | 164 | 0.0 | 2.0 | 0.00 | 0.00 | 0.00 | 48 | 1021.7 |
| 20260505050533 | 61 | 192 | 1.0 | 2.0 | 0.00 | 0.00 | 0.00 | 47 | 1021.7 |
| 20260505041531 | 65 | 234 | 1.0 | 2.0 | 0.00 | 0.00 | 0.00 | 43 | 1021.0 |
| 20260505041031 | 65 | 234 | 1.0 | 2.0 | 0.00 | 0.00 | 0.00 | 44 | 1020.9 |
| 20260505040530 | 65 | 233 | 0.0 | 2.0 | 0.00 | 0.00 | 0.00 | 45 | 1020.8 |
| 20260505040032 | 65 | 257 | 2.0 | 2.0 | 0.00 | 0.00 | 0.00 | 43 | 1020.7 |
| 20260505035530 | 65 | 214 | 0.0 | 0.0 | 0.00 | 0.00 | 0.00 | 44 | 1020.7 |
| 20260505035032 | 65 | 214 | 0.0 | 0.0 | 0.00 | 0.00 | 0.00 | 43 | 1020.6 |
| 20260505034802 | 66 | 214 | 0.0 | 0.0 | 0.00 | 0.00 | 0.00 | 45 | 1020.5 |
| 20260505034030 | 66 | 214 | 0.0 | 0.0 | 0.00 | 0.00 | 0.00 | 44 | 1020.4 |
| 20260505033531 | 67 | 214 | 0.0 | 1.0 | 0.00 | 0.00 | 0.00 | 44 | 1020.4 |
| 20260505033030 | 67 | 214 | 0.0 | 2.0 | 0.00 | 0.00 | 0.00 | 41 | 1020.3 |
| 20260505032531 | 67 | 220 | 1.0 | 2.0 | 0.00 | 0.00 | 0.00 | 42 | 1020.2 |
| 20260505032029 | 68 | 238 | 1.0 | 3.0 | 0.00 | 0.00 | 0.00 | 42 | 1020.2 |
| 20260505031532 | 69 | 209 | 0.0 | 3.0 | 0.00 | 0.00 | 0.00 | 39 | 1020.1 |
| 20260505031030 | 69 | 210 | 1.0 | 2.0 | 0.00 | 0.00 | 0.00 | 39 | 1019.9 |
| 20260505030803 | 69 | 231 | 1.0 | 2.0 | 0.00 | 0.00 | 0.00 | 40 | 1019.9 |
| 20260505030029 | 69 | 220 | 0.0 | 2.0 | 0.00 | 0.00 | 0.00 | 38 | 1019.8 |
| 20260505025529 | 70 | 252 | 1.0 | 2.0 | 0.00 | 0.00 | 0.00 | 39 | 1019.8 |
| 20260505025030 | 70 | 219 | 0.0 | 1.0 | 0.00 | 0.00 | 0.00 | 37 | 1019.6 |
| 20260505024528 | 70 | 219 | 0.0 | 1.0 | 0.00 | 0.00 | 0.00 | 37 | 1019.8 |
| 20260505024259 | 71 | 223 | 1.0 | 2.0 | 0.00 | 0.00 | 0.00 | 37 | 1019.6 |
| 20260505023529 | 71 | 223 | 0.0 | 2.0 | 0.00 | 0.00 | 0.00 | 37 | 1019.6 |
| 20260505023306 | 71 | 234 | 0.0 | 2.0 | 0.00 | 0.00 | 0.00 | 37 | 1019.5 |
| 20260505022529 | 72 | 243 | 1.0 | 2.0 | 0.00 | 0.00 | 0.00 | 37 | 1019.6 |
| 20260505022030 | 73 | 255 | 1.0 | 2.0 | 0.00 | 0.00 | 0.00 | 36 | 1019.5 |
| 20260505021529 | 74 | 258 | 0.0 | 2.0 | 0.00 | 0.00 | 0.00 | 34 | 1019.4 |
| 20260505021028 | 74 | 255 | 1.0 | 2.0 | 0.00 | 0.00 | 0.00 | 34 | 1019.4 |
| 20260505020528 | 76 | 278 | 0.0 | 1.0 | 0.00 | 0.00 | 0.00 | 33 | 1019.4 |
| 20260505020516 | 77 | 261 | 0.0 | 1.0 | 0.00 | 0.00 | 0.00 | 31 | 1019.5 |
| 20260505015529 | 78 | 295 | 0.0 | 0.0 | 0.00 | 0.00 | 0.00 | 29 | 1019.4 |
| 20260505015029 | 79 | 295 | 0.0 | 4.0 | 0.00 | 0.00 | 0.00 | 27 | 1019.3 |
| 20260505014531 | 80 | 295 | 0.0 | 4.0 | 0.00 | 0.00 | 0.00 | 26 | 1019.3 |
| 20260505014030 | 81 | 258 | 0.0 | 7.0 | 0.00 | 0.00 | 0.00 | 25 | 1019.2 |
| 20260505013532 | 81 | 309 | 2.0 | 7.0 | 0.00 | 0.00 | 0.00 | 23 | 1019.3 |
| 20260505013028 | 81 | 289 | 2.0 | 5.0 | 0.00 | 0.00 | 0.00 | 23 | 1019.3 |
| 20260505012527 | 81 | 281 | 0.0 | 4.0 | 0.00 | 0.00 | 0.00 | 24 | 1019.3 |
| 20260505012027 | 81 | 293 | 2.0 | 6.0 | 0.00 | 0.00 | 0.00 | 23 | 1019.3 |
| 20260505012010 | 82 | 274 | 2.0 | 7.0 | 0.00 | 0.00 | 0.00 | 22 | 1019.4 |
| 20260505011028 | 82 | 243 | 3.0 | 7.0 | 0.00 | 0.00 | 0.00 | 22 | 1019.4 |
| 20260505010801 | 83 | 321 | 5.0 | 7.0 | 0.00 | 0.00 | 0.00 | 21 | 1019.4 |
| 20260505010029 | 83 | 285 | 1.0 | 6.0 | 0.00 | 0.00 | 0.00 | 23 | 1019.5 |
| 20260505005529 | 83 | 276 | 2.0 | 5.0 | 0.00 | 0.00 | 0.00 | 23 | 1019.4 |
| 20260505005030 | 83 | 268 | 1.0 | 5.0 | 0.00 | 0.00 | 0.00 | 22 | 1019.5 |
| 20260505004526 | 82 | 254 | 1.0 | 6.0 | 0.00 | 0.00 | 0.00 | 23 | 1019.5 |
| 20260505004041 | 82 | 285 | 2.0 | 7.0 | 0.00 | 0.00 | 0.00 | 23 | 1019.4 |
| 20260505003531 | 82 | 265 | 2.0 | 7.0 | 0.00 | 0.00 | 0.00 | 23 | 1019.5 |
| 20260505003025 | 82 | 310 | 1.0 | 4.0 | 0.00 | 0.00 | 0.00 | 22 | 1019.4 |
| 20260505002528 | 82 | 264 | 1.0 | 4.0 | 0.00 | 0.00 | 0.00 | 23 | 1019.5 |
| 20260505002026 | 83 | 265 | 1.0 | 7.0 | 0.00 | 0.00 | 0.00 | 23 | 1019.6 |
| 20260505001528 | 83 | 262 | 2.0 | 7.0 | 0.00 | 0.00 | 0.00 | 23 | 1019.5 |
| 20260505001026 | 83 | 262 | 2.0 | 7.0 | 0.00 | 0.00 | 0.00 | 23 | 1019.4 |
| 20260505000527 | 84 | 290 | 2.0 | 7.0 | 0.00 | 0.00 | 0.00 | 22 | 1019.5 |
| 20260505000028 | 84 | 49 | 3.0 | 7.0 | 0.00 | 0.00 | 0.00 | 22 | 1019.5 |
| 20260504235755 | 84 | 259 | 4.0 | 7.0 | 0.00 | 0.00 | 0.00 | 22 | 1019.5 |
| 20260504235031 | 86 | 296 | 2.0 | 5.0 | 0.00 | 0.00 | 0.00 | 21 | 1019.5 |
| 20260504234526 | 85 | 268 | 1.0 | 5.0 | 0.00 | 0.00 | 0.00 | 22 | 1019.5 |
| 20260504234030 | 84 | 276 | 1.0 | 6.0 | 0.00 | 0.00 | 0.00 | 24 | 1019.5 |
| 20260504233525 | 84 | 306 | 2.0 | 11.0 | 0.00 | 0.00 | 0.00 | 22 | 1019.6 |
| 20260504233026 | 84 | 292 | 3.0 | 11.0 | 0.00 | 0.00 | 0.00 | 21 | 1019.5 |
| 20260504232530 | 85 | 283 | 2.0 | 7.0 | 0.00 | 0.00 | 0.00 | 21 | 1019.6 |
| 20260504232258 | 85 | 333 | 3.0 | 7.0 | 0.00 | 0.00 | 0.00 | 21 | 1019.5 |
| 20260504231525 | 84 | 306 | 4.0 | 7.0 | 0.00 | 0.00 | 0.00 | 22 | 1019.5 |
| 20260504231025 | 84 | 329 | 0.0 | 6.0 | 0.00 | 0.00 | 0.00 | 22 | 1019.6 |
| 20260504230536 | 83 | 302 | 2.0 | 6.0 | 0.00 | 0.00 | 0.00 | 23 | 1019.8 |
| 20260504230025 | 83 | 285 | 0.0 | 9.0 | 0.00 | 0.00 | 0.00 | 22 | 1019.8 |
| 20260504225528 | 84 | 282 | 0.0 | 9.0 | 0.00 | 0.00 | 0.00 | 23 | 1019.8 |
| 20260504225255 | 85 | 278 | 2.0 | 7.0 | 0.00 | 0.00 | 0.00 | 21 | 1019.9 |
| 20260504224748 | 85 | 0 | 2.0 | 7.0 | 0.00 | 0.00 | 0.00 | 21 | 1019.9 |
| 20260504224023 | 85 | 264 | 2.0 | 10.0 | 0.00 | 0.00 | 0.00 | 21 | 1019.9 |
| 20260504223524 | 85 | 257 | 2.0 | 10.0 | 0.00 | 0.00 | 0.00 | 20 | 1019.9 |
| 20260504223024 | 85 | 4 | 2.0 | 11.0 | 0.00 | 0.00 | 0.00 | 21 | 1019.9 |
| 20260504222523 | 85 | 281 | 6.0 | 11.0 | 0.00 | 0.00 | 0.00 | 19 | 1020.0 |
| 20260504222024 | 86 | 320 | 2.0 | 12.0 | 0.00 | 0.00 | 0.00 | 23 | 1020.0 |
| 20260504221523 | 85 | 300 | 0.0 | 12.0 | 0.00 | 0.00 | 0.00 | 22 | 1019.9 |
| 20260504221024 | 86 | 266 | 2.0 | 7.0 | 0.00 | 0.00 | 0.00 | 20 | 1020.0 |
| 20260504220523 | 85 | 281 | 1.0 | 7.0 | 0.00 | 0.00 | 0.00 | 22 | 1020.0 |
| 20260504220024 | 84 | 279 | 4.0 | 7.0 | 0.00 | 0.00 | 0.00 | 20 | 1020.1 |
| 20260504215751 | 84 | 307 | 2.0 | 7.0 | 0.00 | 0.00 | 0.00 | 21 | 1020.2 |
| 20260504215022 | 84 | 285 | 3.0 | 12.0 | 0.00 | 0.00 | 0.00 | 21 | 1020.3 |
| 20260504214523 | 84 | 279 | 3.0 | 12.0 | 0.00 | 0.00 | 0.00 | 22 | 1020.3 |
| 20260504214021 | 84 | 54 | 3.0 | 9.0 | 0.00 | 0.00 | 0.00 | 20 | 1020.4 |
| 20260504213523 | 84 | 52 | 1.0 | 10.0 | 0.00 | 0.00 | 0.00 | 23 | 1020.4 |
| 20260504213024 | 84 | 275 | 5.0 | 10.0 | 0.00 | 0.00 | 0.00 | 20 | 1020.4 |
| 20260504212523 | 83 | 268 | 3.0 | 11.0 | 0.00 | 0.00 | 0.00 | 21 | 1020.4 |
| 20260504212021 | 83 | 269 | 5.0 | 11.0 | 0.00 | 0.00 | 0.00 | 21 | 1020.5 |
| 20260504211523 | 83 | 262 | 6.0 | 13.0 | 0.00 | 0.00 | 0.00 | 20 | 1020.5 |
| 20260504211021 | 83 | 258 | 3.0 | 13.0 | 0.00 | 0.00 | 0.00 | 20 | 1020.4 |
| 20260504210521 | 84 | 255 | 3.0 | 6.0 | 0.00 | 0.00 | 0.00 | 22 | 1020.5 |
| 20260504210245 | 83 | 348 | 1.0 | 13.0 | 0.00 | 0.00 | 0.00 | 22 | 1020.5 |
| 20260504205752 | 83 | 319 | 2.0 | 13.0 | 0.00 | 0.00 | 0.00 | 21 | 1020.6 |
| 20260504205023 | 83 | 317 | 7.0 | 12.0 | 0.00 | 0.00 | 0.00 | 21 | 1020.5 |
| 20260504204750 | 83 | 317 | 4.0 | 11.0 | 0.00 | 0.00 | 0.00 | 21 | 1020.6 |
| 20260504204022 | 83 | 286 | 3.0 | 11.0 | 0.00 | 0.00 | 0.00 | 22 | 1020.7 |
| 20260504203522 | 82 | 336 | 6.0 | 11.0 | 0.00 | 0.00 | 0.00 | 21 | 1020.7 |
| 20260504203020 | 82 | 303 | 4.0 | 11.0 | 0.00 | 0.00 | 0.00 | 22 | 1020.7 |
| 20260504202521 | 82 | 282 | 5.0 | 11.0 | 0.00 | 0.00 | 0.00 | 21 | 1020.7 |
| 20260504202021 | 82 | 295 | 5.0 | 11.0 | 0.00 | 0.00 | 0.00 | 21 | 1020.8 |
| 20260504201521 | 82 | 276 | 6.0 | 13.0 | 0.00 | 0.00 | 0.00 | 21 | 1020.9 |
| 20260504201019 | 81 | 320 | 4.0 | 13.0 | 0.00 | 0.00 | 0.00 | 23 | 1020.9 |
| 20260504200521 | 81 | 300 | 6.0 | 11.0 | 0.00 | 0.00 | 0.00 | 21 | 1020.9 |
| 20260504200020 | 81 | 155 | 5.0 | 13.0 | 0.00 | 0.00 | 0.00 | 22 | 1021.0 |
| 20260504195522 | 81 | 262 | 6.0 | 13.0 | 0.00 | 0.00 | 0.00 | 22 | 1021.0 |
| 20260504195020 | 81 | 269 | 4.0 | 13.0 | 0.00 | 0.00 | 0.00 | 22 | 1021.0 |
| 20260504194519 | 82 | 265 | 7.0 | 13.0 | 0.00 | 0.00 | 0.00 | 20 | 1021.0 |
| 20260504194020 | 81 | 300 | 2.0 | 13.0 | 0.00 | 0.00 | 0.00 | 22 | 1021.0 |
| 20260504193746 | 81 | 240 | 8.0 | 13.0 | 0.00 | 0.00 | 0.00 | 22 | 1021.1 |
| 20260504193243 | 81 | 285 | 6.0 | 13.0 | 0.00 | 0.00 | 0.00 | 23 | 1021.0 |
| 20260504192520 | 81 | 269 | 4.0 | 10.0 | 0.00 | 0.00 | 0.00 | 24 | 1021.1 |
| 20260504192020 | 80 | 307 | 3.0 | 11.0 | 0.00 | 0.00 | 0.00 | 25 | 1021.4 |
| 20260504191520 | 80 | 288 | 6.0 | 11.0 | 0.00 | 0.00 | 0.00 | 23 | 1021.4 |
| 20260504191021 | 80 | 314 | 3.0 | 11.0 | 0.00 | 0.00 | 0.00 | 24 | 1021.5 |
| 20260504190518 | 80 | 264 | 5.0 | 10.0 | 0.00 | 0.00 | 0.00 | 24 | 1021.5 |
| 20260504190019 | 79 | 283 | 6.0 | 12.0 | 0.00 | 0.00 | 0.00 | 23 | 1021.7 |
| 20260504185519 | 79 | 303 | 8.0 | 12.0 | 0.00 | 0.00 | 0.00 | 23 | 1021.8 |
| 20260504185019 | 79 | 264 | 4.0 | 10.0 | 0.00 | 0.00 | 0.00 | 23 | 1021.7 |
| 20260504184737 | 79 | 269 | 6.0 | 11.0 | 0.00 | 0.00 | 0.00 | 23 | 1021.8 |
| 20260504184018 | 79 | 281 | 3.0 | 19.0 | 0.00 | 0.00 | 0.00 | 23 | 1021.9 |
| 20260504184008 | 78 | 258 | 9.0 | 19.0 | 0.00 | 0.00 | 0.00 | 23 | 1021.8 |
| 20260504183254 | 79 | 265 | 7.0 | 13.0 | 0.00 | 0.00 | 0.00 | 23 | 1021.9 |
| 20260504182520 | 79 | 295 | 4.0 | 13.0 | 0.00 | 0.00 | 0.00 | 25 | 1021.9 |
| 20260504182018 | 78 | 266 | 2.0 | 11.0 | 0.00 | 0.00 | 0.00 | 26 | 1022.0 |
| 20260504181519 | 78 | 289 | 6.0 | 11.0 | 0.00 | 0.00 | 0.00 | 24 | 1022.0 |
| 20260504181239 | 79 | 290 | 5.0 | 10.0 | 0.00 | 0.00 | 0.00 | 24 | 1022.0 |
| 20260504180514 | 79 | 290 | 2.0 | 9.0 | 0.00 | 0.00 | 0.00 | 24 | 1022.0 |
| 20260504180018 | 79 | 226 | 2.0 | 11.0 | 0.00 | 0.00 | 0.00 | 24 | 1022.0 |
| 20260504175518 | 78 | 271 | 4.0 | 11.0 | 0.00 | 0.00 | 0.00 | 25 | 1022.0 |
| 20260504175019 | 78 | 276 | 4.0 | 12.0 | 0.00 | 0.00 | 0.00 | 25 | 1022.0 |
| 20260504174518 | 78 | 275 | 5.0 | 12.0 | 0.00 | 0.00 | 0.00 | 25 | 1022.1 |
| 20260504174459 | 78 | 290 | 6.0 | 12.0 | 0.00 | 0.00 | 0.00 | 25 | 1022.1 |
| 20260504173517 | 77 | 279 | 3.0 | 12.0 | 0.00 | 0.00 | 0.00 | 26 | 1022.1 |
| 20260504173017 | 77 | 324 | 5.0 | 12.0 | 0.00 | 0.00 | 0.00 | 26 | 1022.1 |
| 20260504172518 | 77 | 265 | 6.0 | 11.0 | 0.00 | 0.00 | 0.00 | 25 | 1022.3 |
| 20260504172016 | 77 | 271 | 1.0 | 10.0 | 0.00 | 0.00 | 0.00 | 27 | 1022.3 |
| 20260504171518 | 76 | 275 | 0.0 | 7.0 | 0.00 | 0.00 | 0.00 | 30 | 1022.3 |
| 20260504171016 | 75 | 243 | 1.0 | 5.0 | 0.00 | 0.00 | 0.00 | 34 | 1022.5 |
| 20260504170745 | 74 | 309 | 1.0 | 4.0 | 0.00 | 0.00 | 0.00 | 32 | 1022.4 |
| 20260504151011 | 59 | 56 | 0.0 | 2.0 | 0.00 | 0.00 | 0.00 | 52 | 1023.9 |
| 20260504150513 | 59 | 76 | 1.0 | 2.0 | 0.00 | 0.00 | 0.00 | 54 | 1024.0 |
| 20260504141012 | 47 | 66 | 0.0 | 0.0 | 0.00 | 0.00 | 0.00 | 74 | 1023.9 |
| 20260504140512 | 47 | 66 | 0.0 | 0.0 | 0.00 | 0.00 | 0.00 | 75 | 1024.0 |
| 20260504130511 | 42 | 155 | 0.0 | 1.0 | 0.00 | 0.00 | 0.00 | 78 | 1023.8 |
| 20260504120237 | 44 | 128 | 0.0 | 1.0 | 0.00 | 0.00 | 0.00 | 73 | 1023.6 |
| 20260504110509 | 47 | 154 | 0.0 | 0.0 | 0.00 | 0.00 | 0.00 | 70 | 1023.5 |
| 20260504100508 | 48 | 142 | 0.0 | 0.0 | 0.00 | 0.00 | 0.00 | 66 | 1023.6 |